Location: Il Ritiro
(43.4167°N, 13.1333°E)
Time: 06:40:22
(UTC+00:00)

NOSS 3-4 (A) - Pass Details

Date: 05 July 2020
Orbit: 892 x 1320 km, 63.4° (Epoch: 12 July)

Event Time Altitude Azimuth Distance (km) Brightness Sun altitude
Rises 22:06:49 0° 323° (NW) 3,836 7.8 -22.2°
Reaches altitude 10° 22:09:20 10° 323° (NW) 2,937 7.0 -22.4°
Maximum altitude 22:16:25 89° 56° (NE) 1,178 3.8 -22.7°
Enters shadow 22:19:47 38° 145° (SE) 1,772 4.3 -22.8°
